Location: Winthrop
(48.4780°N, 120.1850°W)
Time: 19:41:46
(UTC-08:00)

Envisat - Pass Details

Date: 03 December 2022
Orbit: 763 x 765 km, 98.2° (Epoch: 05 February)

Event Time Altitude Azimuth Distance (km) Brightness Sun altitude
Rises 06:19:40 0° 358° (N) 3,245 6.0 -11.8°
Reaches altitude 10° 06:23:26 10° 330° (NNW) 2,313 5.0 -11.2°
Enters shadow 06:24:44 12° 315° (NW) 2,176 4.8 -11.0°
